Location: *
(48.8489°N, 2.3218°E)
Time: 18:37:01
(UTC+00:00)

Meteor 1-11 Rocket - Pass Details

Date: 23 August 2019
Orbit: 831 x 916 km, 81.2° (Epoch: 21 September)

Event Time Altitude Azimuth Distance (km) Brightness Sun altitude
Rises 20:03:56 0° 176° (S) 3,515 6.6 -11.5°
Reaches altitude 10° 20:06:25 10° 172° (S) 2,587 5.8 -11.9°
Maximum altitude 20:12:11 57° 95° (E) 1,074 4.0 -12.7°
Drops below altitude 10° 20:18:02 10° 19° (NNE) 2,620 6.5 -13.5°
Sets 20:20:33 0° 15° (NNE) 3,564 7.2 -13.8°
